CW5229 Weather Reports


Display with metric or nautical units.
time (UTC)temp
F
wind
direction
speed
MPH
gust
MPH
rain 1hr
in
rain 24hr
in
rain mn
in
humidity
%
barometer
mb
20260505194509 56 285 0.0 4.0 0.00 0.31 0.00 53 1007.5
20260505193006 56 258 1.0 6.0 0.00 0.31 0.00 54 1007.6
20260505191505 56 244 1.0 6.0 0.00 0.31 0.00 53 1007.6
20260505190005 57 221 1.0 5.0 0.00 0.31 0.00 54 1007.8
20260505184507 57 227 1.0 7.0 0.00 0.31 0.00 51 1007.9
20260505183001 56 233 0.0 8.0 0.00 0.31 0.00 52 1007.9
20260505181559 57 319 1.0 5.0 0.00 0.31 0.00 52 1007.8
20260505180100 57 334 2.0 5.0 0.00 0.31 0.00 52 1007.6
20260505174555 57 253 1.0 8.0 0.00 0.31 0.00 53 1007.5
20260505173110 58 238 1.0 5.0 0.00 0.31 0.00 51 1007.3
20260505171605 59 178 0.0 8.0 0.00 0.31 0.00 51 1007.4
20260505170045 58 288 1.0 7.0 0.00 0.31 0.00 54 1007.2
20260505164544 56 210 0.0 3.0 0.00 0.31 0.31 60 1007.3
20260505163042 56 75 0.0 3.0 0.00 0.31 0.31 62 1007.3
20260505161541 55 326 0.0 2.0 0.00 0.31 0.31 65 1007.2
20260505153010 52 302 1.0 3.0 0.00 0.31 0.31 78 1007.1
20260505151512 50 275 0.0 2.0 0.00 0.31 0.31 83 1007.5
20260505124540 0 0.0 0.0 0.00 0.31 0.31 1006.5
20260505123024 0 0.0 0.0 0.00 0.31 0.31 1006.9
20260505121531 0 0.0 0.0 0.00 0.31 0.31 1006.7
20260505120012 0 0.0 0.0 0.00 0.31 0.31 1006.4
20260505114508 0 0.0 0.0 0.00 0.31 0.31 1005.6
20260505113004 0 0.0 0.0 0.00 0.31 0.31 1005.7
20260505111600 0 0.0 0.0 0.00 0.31 0.31 1004.7
20260505101546 52 71 0.0 3.0 0.00 0.31 0.31 72 1004.6
20260505094542 52 289 0.0 2.0 0.00 0.31 0.31 76 1004.1
20260505093038 52 293 0.0 2.0 0.00 0.31 0.31 76 1004.2
20260505091547 52 248 0.0 2.0 0.00 0.31 0.31 77 1003.9
20260505090037 52 274 0.0 0.0 0.00 0.31 0.31 82 1003.6
20260505084528 52 265 0.0 0.0 0.00 0.31 0.31 82 1002.8
20260505083035 52 265 0.0 0.0 0.00 0.31 0.31 82 1002.8
20260505081525 52 264 0.0 0.0 0.00 0.31 0.31 85 1002.8
20260505080032 51 283 0.0 0.0 0.00 0.31 0.31 87 1002.4
20260505074518 51 283 0.0 0.0 0.00 0.31 0.31 87 1001.7
20260505073015 52 283 0.0 0.0 0.00 0.31 0.31 86 1001.4
20260505071512 52 283 0.0 0.0 0.00 0.31 0.31 86 1001.3
20260505070010 53 283 0.0 0.0 0.00 0.31 0.31 86 1001.3
20260505064504 54 283 0.0 0.0 0.00 0.31 0.31 85 1001.1
20260505063003 55 283 0.0 0.0 0.00 0.31 0.31 85 1000.6
20260505061559 55 301 0.0 0.0 0.00 0.31 0.31 85 1000.5
20260505060055 56 251 0.0 0.0 0.00 0.31 0.31 85 1000.6
20260505054617 56 238 0.0 0.0 0.00 0.31 0.31 85 1000.4
20260505053051 57 252 0.0 2.0 0.00 0.31 0.31 85 1000.6
20260505051547 57 250 0.0 2.0 0.00 0.31 0.31 85 1000.4
20260505041548 58 165 0.0 4.0 0.00 0.31 0.31 85 999.7
20260505040042 57 192 0.0 4.0 0.00 0.31 0.31 85 999.9
20260505034506 57 231 0.0 3.0 0.00 0.31 0.31 85 999.8
20260505033007 57 269 0.0 3.0 0.02 0.31 0.31 86 999.5
20260505031503 57 213 0.0 1.0 0.06 0.31 0.31 86 999.2
20260505030107 57 248 0.0 2.0 0.07 0.31 0.31 86 999.3
20260505024614 57 234 0.0 2.0 0.08 0.31 0.31 86 999.6
20260505023059 58 169 0.0 1.0 0.06 0.28 0.28 85 999.6
20260505021556 58 234 2.0 7.0 0.03 0.25 0.25 84 999.7
20260505014549 58 231 3.0 10.0 0.02 0.23 0.23 84 999.7
20260505013047 60 226 3.0 13.0 0.04 0.23 0.23 81 999.4
20260505011514 60 233 3.0 9.0 0.04 0.22 0.22 83 998.3
20260505010015 61 257 0.0 4.0 0.04 0.22 0.22 83 998.8
20260505004509 62 297 3.0 7.0 0.02 0.20 0.20 79 998.6
20260505003008 65 283 2.0 12.0 0.00 0.18 0.18 70 998.3
20260505001506 66 262 2.0 9.0 0.00 0.18 0.18 74 997.2
20260505000010 61 253 0.0 3.0 0.08 0.18 0.18 83 996.8
20260504234534 60 250 0.0 3.0 0.18 0.18 0.18 83 996.9
20260504233034 60 233 0.0 1.0 0.18 0.18 0.18 84 997.4
20260504231534 60 217 0.0 6.0 0.18 0.18 0.18 82 997.1
20260504230028 63 273 2.0 13.0 0.09 0.09 0.09 73 997.7
20260504224525 72 69 1.0 7.0 0.00 0.00 0.00 62 997.6
20260504223022 74 247 1.0 11.0 0.00 0.00 0.00 53 996.7
20260504221515 75 207 3.0 12.0 0.00 0.00 0.00 53 997.1
20260504220011 76 186 3.0 10.0 0.00 0.00 0.00 51 996.8
20260504214509 76 289 4.0 10.0 0.00 0.00 0.00 51 997.3
20260504213008 76 271 2.0 16.0 0.00 0.00 0.00 51 997.3
20260504211506 77 155 4.0 12.0 0.00 0.00 0.00 50 997.7
20260504210009 78 139 4.0 14.0 0.00 0.00 0.00 45 997.7
20260504204510 80 209 4.0 11.0 0.00 0.00 0.00 44 997.7
20260504204503 80 204 4.0 11.0 0.00 0.00 0.00 44 997.7
20260504203101 80 146 4.0 10.0 0.00 0.00 0.00 39 997.7
20260504201610 79 154 4.0 9.0 0.00 0.00 0.00 42 997.9